Home > Weather > Salzburg > Past weeks

Flag for Austria Past Weather in Salzburg, Salzburg, Austria — Yesterday and Last 2 Weeks

Now
59 °F

Passing clouds.


Feels Like: 59 °F
Forecast: 55 / 66 °F
Wind: 5 mph from Southeast

Location: Salzburg-Flughafen

Current Time: May 29, 2016 at 2:09:25 AM

Latest Report: May 29, 2016 at 1:00 AM


Visibility: 28 mi

Pressure: 29.79 "Hg

Humidity: 90%

Dew Point: 56 °F

Location of SalzburgLocation

Past Weather in Salzburg — Graph

°F

Salzburg Temperature Yesterday

Maximum temperature yesterday: 77 °F (at 4:00 PM)
Minimum temperature yesterday: 59 °F (at 6:00 AM)
Average temperature yesterday: 66 °F

High & Low Weather Summary for the Past Weeks

 TemperatureHumidityPressure
High85 °F (May 22, 5:00 PM)100% (May 14, 1:00 AM)30.22 "Hg (May 14, 1:00 AM)
Low40 °F (May 16, 6:00 AM)35% (May 22, 1:00 PM)29.60 "Hg (May 14, 1:00 AM)
Average55 °F77%29.97 "Hg
* Reported May 14 1:00 AM — May 29 1:00 AM, Salzburg, Weather by CustomWeather, © 2016

Note: Actual official high and low records may vary slightly from our data, if they occured in-between our weather recording intervals... More about our weather records

Advertising

Salzburg Weather History for the Previous 24 Hours

Scroll right to see more
 ConditionsComfort  
Time TempWeatherWind HumidityBarometerVisibility
1:00 AM
Sun, May 29
59 °FPassing clouds.5 mph90%29.79 "Hg28 mi
12:00 AM60 °FPassing clouds.5 mph91%29.82 "Hg28 mi
11:00 PM
Sat, May 28
61 °FPassing clouds.5 mph91%29.83 "Hg25 mi
10:00 PM61 °FPassing clouds.5 mph92%29.83 "Hg22 mi
9:00 PM63 °FOvercast.5 mph88%29.84 "Hg25 mi
8:00 PM63 °FOvercast.5 mph86%29.84 "Hg28 mi
5:00 PM75 °FOvercast.5 mph60%29.78 "Hg25 mi
4:00 PM77 °FPassing clouds.6 mph54%29.78 "Hg25 mi
3:00 PM75 °FPassing clouds.N/A58%29.80 "Hg17 mi
2:00 PM74 °FPassing clouds.3 mph57%29.85 "Hg18 mi
1:00 PM72 °FPassing clouds.5 mph60%29.87 "Hg14 mi
12:00 PM72 °FPassing clouds.N/A57%29.88 "Hg18 mi
11:00 AM68 °FScattered clouds.N/A68%29.91 "Hg14 mi
10:00 AM67 °FPartly sunny.N/A73%29.93 "Hg22 mi
9:00 AM65 °FOvercast.N/A77%29.96 "Hg22 mi
7:00 AM61 °FOvercast.3 mph83%29.93 "Hg25 mi
6:00 AM59 °FScattered clouds.3 mph87%29.93 "Hg28 mi
5:00 AM60 °FPassing clouds.5 mph84%29.92 "Hg28 mi
4:00 AM63 °FPassing clouds.6 mph81%29.93 "Hg25 mi
3:00 AM63 °FOvercast.6 mph81%29.94 "Hg28 mi
2:00 AM64 °FOvercast.5 mph78%29.95 "Hg28 mi
Weather by CustomWeather, © 2016

See weather overviewHow to use our weather pages